When you browse on this site, cookies collect data to enhance your experience and personalize the content and advertising you see.
Visit our Privacy Policy to learn more. By continuing to use the site, you agree to this use of cookies and data.
  • In France
  • List of Countries
  • For 7 days
  • Water Temperature
  • Weather Map
  • Weather Widgets
  • user-avatar
    Login

    Hourly Weather Edmundston

    Today, 3 April, Friday

    Time Temperature Precipitation Wind Pressure Humidity
    00:00 -20°C° 0 mm 2 mps 706 mmHg 89%
    01:00 -19°C° 0 mm 1 mps 705 mmHg 89%
    02:00 -21°C° 0 mm 2 mps 705 mmHg 89%
    03:00 -21°C° 0 mm 2 mps 705 mmHg 88%
    04:00 -20°C° 0 mm 2 mps 705 mmHg 88%
    05:00 -19°C° 0 mm 2 mps 705 mmHg 88%
    06:00 -18°C° 0 mm 2 mps 705 mmHg 88%
    07:00 -18°C° 0 mm 2 mps 705 mmHg 88%
    08:00 -16°C° 0 mm 2 mps 704 mmHg 87%
    09:00 -15°C° 0 mm 2 mps 704 mmHg 86%
    10:00 -14°C° 0 mm 3 mps 704 mmHg 85%
    11:00 -13°C° 0 mm 3 mps 704 mmHg 84%
    12:00 -12°C° 0 mm 3 mps 704 mmHg 83%
    13:00 -10°C° 0 mm 3 mps 703 mmHg 81%
    14:00 -12°C° 0 mm 3 mps 703 mmHg 83%
    15:00 -12°C° 0 mm 3 mps 703 mmHg 84%
    16:00 -12°C° 0 mm 3 mps 703 mmHg 85%
    17:00 -13°C° 0 mm 3 mps 702 mmHg 88%
    18:00 -14°C° 0 mm 3 mps 702 mmHg 90%
    19:00 -15°C° 0 mm 2 mps 702 mmHg 93%
    20:00 -15°C° 0 mm 2 mps 702 mmHg 94%
    21:00 -16°C° 0 mm 2 mps 702 mmHg 94%
    22:00 -17°C° 0 mm 2 mps 701 mmHg 95%
    23:00 -17°C° 0 mm 2 mps 701 mmHg 95%

    Tomorrow, 4 April, Saturday

    Time Temperature Precipitation Wind Pressure Humidity
    00:00 -17°C° 0 mm 2 mps 701 mmHg 95%
    01:00 -15°C° 0 mm 1 mps 701 mmHg 96%
    02:00 -15°C° 0 mm 1 mps 701 mmHg 96%
    03:00 -16°C° 0 mm 1 mps 701 mmHg 96%
    04:00 -16°C° 0 mm 1 mps 701 mmHg 96%
    05:00 -15°C° 0 mm 1 mps 701 mmHg 96%
    06:00 -15°C° 0 mm 1 mps 701 mmHg 96%
    07:00 -14°C° 0 mm 1 mps 701 mmHg 95%
    08:00 -13°C° 0 mm 1 mps 701 mmHg 93%
    09:00 -11°C° 0 mm 1 mps 701 mmHg 91%
    10:00 -10°C° 0 mm 1 mps 701 mmHg 88%
    11:00 -10°C° 0 mm 2 mps 701 mmHg 87%
    12:00 -9°C° 0 mm 2 mps 701 mmHg 86%
    13:00 -8°C° 0 mm 2 mps 701 mmHg 85%
    14:00 -8°C° 0 mm 2 mps 700 mmHg 86%
    15:00 -9°C° 0 mm 3 mps 700 mmHg 88%
    16:00 -9°C° 0 mm 3 mps 700 mmHg 89%
    17:00 -12°C° 0 mm 3 mps 700 mmHg 91%
    18:00 -12°C° 0 mm 2 mps 700 mmHg 92%
    19:00 -14°C° 0 mm 2 mps 700 mmHg 94%
    20:00 -14°C° 0 mm 2 mps 700 mmHg 94%
    21:00 -15°C° 0 mm 2 mps 700 mmHg 95%
    22:00 -15°C° 0 mm 2 mps 700 mmHg 95%
    23:00 -15°C° 0 mm 2 mps 700 mmHg 95%

    Day after tomorrow, 5 April, Sunday

    Time Temperature Precipitation Wind Pressure Humidity
    00:00 -15°C° 0 mm 2 mps 700 mmHg 95%
    01:00 -15°C° 0 mm 2 mps 699 mmHg 95%
    02:00 -15°C° 0 mm 2 mps 699 mmHg 95%
    03:00 -16°C° 0 mm 2 mps 699 mmHg 95%
    04:00 -16°C° 0 mm 2 mps 699 mmHg 95%
    05:00 -15°C° 0 mm 2 mps 699 mmHg 95%
    06:00 -14°C° 0 mm 2 mps 699 mmHg 95%
    07:00 -15°C° 0 mm 3 mps 699 mmHg 94%
    08:00 -14°C° 0 mm 3 mps 699 mmHg 93%
    09:00 -12°C° 0 mm 3 mps 699 mmHg 92%
    10:00 -10°C° 0 mm 3 mps 699 mmHg 91%
    11:00 -10°C° 0 mm 3 mps 698 mmHg 90%
    12:00 -9°C° 0 mm 3 mps 698 mmHg 89%
    13:00 -9°C° 0 mm 4 mps 698 mmHg 88%
    14:00 -9°C° 0 mm 4 mps 697 mmHg 89%
    15:00 -9°C° 0 mm 4 mps 697 mmHg 89%
    16:00 -9°C° 0 mm 4 mps 697 mmHg 90%
    17:00 -9°C° 0 mm 3 mps 697 mmHg 92%
    18:00 -8°C° 0 mm 2 mps 697 mmHg 93%
    19:00 -9°C° 0 mm 2 mps 697 mmHg 95%
    20:00 -9°C° 0.1 mm 2 mps 697 mmHg 95%
    21:00 -9°C° 0.1 mm 2 mps 697 mmHg 96%
    22:00 -9°C° 0.1 mm 2 mps 696 mmHg 96%
    23:00 -9°C° 0 mm 1 mps 696 mmHg 96%

    6 April, Monday

    Time Temperature Precipitation Wind Pressure Humidity
    00:00 -9°C° 0 mm 1 mps 696 mmHg 96%
    01:00 -9°C° 0 mm 1 mps 695 mmHg 96%
    02:00 -9°C° 0 mm 0 mps 695 mmHg 96%
    03:00 -9°C° 0 mm 0 mps 695 mmHg 96%
    04:00 -9°C° 0 mm 0 mps 694 mmHg 96%
    05:00 -8°C° 0.1 mm 0 mps 694 mmHg 95%
    06:00 -8°C° 0.1 mm 1 mps 694 mmHg 95%
    07:00 -7°C° 0.1 mm 1 mps 694 mmHg 94%
    08:00 -6°C° 0 mm 1 mps 694 mmHg 92%
    09:00 -6°C° 0 mm 1 mps 693 mmHg 91%
    10:00 -6°C° 0 mm 2 mps 693 mmHg 89%
    11:00 -5°C° 0 mm 2 mps 692 mmHg 88%
    12:00 -2°C° 0 mm 1 mps 692 mmHg 88%
    13:00 -2°C° 0 mm 1 mps 692 mmHg 87%
    14:00 -3°C° 0 mm 2 mps 691 mmHg 88%
    15:00 -3°C° 0 mm 2 mps 691 mmHg 89%
    16:00 -3°C° 0 mm 2 mps 691 mmHg 90%
    17:00 -4°C° 0 mm 2 mps 691 mmHg 91%
    18:00 -4°C° 0 mm 2 mps 691 mmHg 91%
    19:00 -6°C° 0 mm 3 mps 691 mmHg 91%
    20:00 -6°C° 0.2 mm 3 mps 691 mmHg 92%
    21:00 -6°C° 0.2 mm 3 mps 691 mmHg 92%
    22:00 -5°C° 0.2 mm 4 mps 691 mmHg 93%
    23:00 -5°C° 0 mm 4 mps 691 mmHg 91%

    7 April, Tuesday

    Time Temperature Precipitation Wind Pressure Humidity
    00:00 -5°C° 0 mm 4 mps 692 mmHg 89%
    01:00 -4°C° 0 mm 4 mps 692 mmHg 88%
    02:00 -6°C° 0 mm 5 mps 692 mmHg 87%
    03:00 -7°C° 0 mm 5 mps 693 mmHg 86%
    04:00 -7°C° 0 mm 5 mps 693 mmHg 86%
    05:00 -7°C° 0 mm 5 mps 693 mmHg 85%
    06:00 -6°C° 0 mm 5 mps 694 mmHg 84%
    07:00 -6°C° 0 mm 6 mps 694 mmHg 84%
    08:00 -5°C° 0 mm 6 mps 695 mmHg 82%
    09:00 -4°C° 0 mm 7 mps 695 mmHg 81%
    10:00 -3°C° 0 mm 7 mps 695 mmHg 80%
    11:00 -3°C° 0 mm 7 mps 696 mmHg 80%
    12:00 -3°C° 0 mm 7 mps 696 mmHg 80%
    13:00 -2°C° 0 mm 7 mps 697 mmHg 80%
    14:00 -3°C° 0 mm 7 mps 698 mmHg 78%
    15:00 -3°C° 0 mm 7 mps 698 mmHg 75%
    16:00 -3°C° 0 mm 7 mps 699 mmHg 73%
    17:00 -4°C° 0 mm 6 mps 700 mmHg 75%
    18:00 -6°C° 0 mm 5 mps 701 mmHg 77%
    19:00 -7°C° 0 mm 4 mps 701 mmHg 78%
    20:00 -8°C° 0 mm 4 mps 702 mmHg 79%
    21:00 -8°C° 0 mm 4 mps 703 mmHg 80%
    22:00 -9°C° 0 mm 4 mps 704 mmHg 81%
    23:00 -10°C° 0 mm 4 mps 704 mmHg 84%

    8 April, Wednesday

    Time Temperature Precipitation Wind Pressure Humidity
    00:00 -10°C° 0 mm 4 mps 705 mmHg 86%
    01:00 -11°C° 0 mm 4 mps 705 mmHg 89%
    02:00 -12°C° 0 mm 3 mps 706 mmHg 89%
    03:00 -12°C° 0 mm 3 mps 706 mmHg 89%
    04:00 -12°C° 0 mm 3 mps 707 mmHg 90%
    05:00 -10°C° 0 mm 2 mps 707 mmHg 89%
    06:00 -9°C° 0 mm 2 mps 707 mmHg 89%
    07:00 -8°C° 0 mm 2 mps 708 mmHg 89%
    08:00 -4°C° 0 mm 1 mps 707 mmHg 87%
    09:00 -3°C° 0 mm 1 mps 707 mmHg 84%
    10:00 -2°C° 0 mm 1 mps 707 mmHg 82%
    11:00 -1°C° 0 mm 1 mps 707 mmHg 85%
    12:00 -2°C° 0 mm 2 mps 706 mmHg 88%
    13:00 -1°C° 0 mm 2 mps 706 mmHg 91%
    14:00 -1°C° 0 mm 2 mps 705 mmHg 91%
    15:00 -1°C° 0 mm 3 mps 705 mmHg 90%
    16:00 -1°C° 0 mm 3 mps 704 mmHg 90%
    17:00 -2°C° 0 mm 4 mps 704 mmHg 90%
    18:00 -3°C° 0 mm 4 mps 703 mmHg 90%
    19:00 -3°C° 0 mm 4 mps 703 mmHg 91%
    20:00 -3°C° 0 mm 4 mps 702 mmHg 89%
    21:00 -3°C° 0 mm 4 mps 702 mmHg 88%
    22:00 -4°C° 0 mm 4 mps 701 mmHg 87%
    23:00 -3°C° 0 mm 4 mps 700 mmHg 87%
    Show more